Weather History for KSSI - February, 2013

Change the Weather History Date:

Tuesday, February 5, 2013

  Actual Average Record
Temperature  
Mean Temperature 55 °F 53 °F  
Max Temperature 65 °F 62 °F 81 °F (2012)
Min Temperature 45 °F 44 °F 16 °F (1996)
Degree Days  
Heating Degree Days 10 12  
Month to date heating degree days 70 62  
Since 1 July heating degree days 745 1013  
Cooling Degree Days 0 0  
Month to date cooling degree days 0 0  
Year to date cooling degree days 12 3  
Growing Degree Days 5 (Base 50)    
Moisture  
Dew Point 45 °F    
Average Humidity 70    
Maximum Humidity 93    
Minimum Humidity 46    
Precipitation  
Precipitation T in 0.12 in 1.92 in (1963)
Month to date precipitation T 0.59  
Year to date precipitation 0.34 3.81  
Snow  
Snow 0.00 in - 0.00 in ()
Month to date snowfall 0.0  
Since 1 July snowfall 0.0  
Snow Depth 0.00 in    
Sea Level Pressure  
Sea Level Pressure 30.06 in    
Wind  
Wind Speed 5 mph (SSW)    
Max Wind Speed 12 mph    
Max Gust Speed 25 mph    
Visibility 10 miles    
Events      
T = Trace of Precipitation, MM = Missing Value Source: NWS Daily Summary

Daily Weather History Graph

Daily Weather History Graph

Search for Another Location

Airport or City:

Trip Planner

Search our weather history database for the weather conditions in past years. The results will help you decide how hot, cold, wet, or windy it might be!

Date:

Astronomy

Feb. 05, 2013 Rise Set
Actual Time 7:14 AM EST 6:04 PM EST
Civil Twilight 6:49 AM EST 6:29 PM EST
Nautical Twilight 6:20 AM EST 6:58 PM EST
Astronomical Twilight 5:52 AM EST 7:27 PM EST
Moon 2:48 AM EST (2/5) 1:28 PM EST (2/5)
Length of Visible Light 11h 40m
Length of Day
10h 49m
Waning Crescent, 27% of the Moon is Illuminated
Feb 5
Waning Crescent
Feb 10
New
Feb 17
First Quarter
Feb 25
Full
Mar 4
Last Quarter

Hourly Weather History & Observations

Time (EST) Temp. Dew Point Humidity Pressure Visibility Wind Dir Wind Speed Gust Speed Precip Events Conditions
12:53 AM 48.9 °F 46.0 °F 90% 30.06 in 10.0 mi Calm Calm - N/A   Clear
1:53 AM 50.0 °F 46.0 °F 86% 30.06 in 10.0 mi WSW 3.5 mph - N/A   Clear
2:53 AM 48.9 °F 46.0 °F 90% 30.04 in 10.0 mi WSW 3.5 mph - N/A   Overcast
3:53 AM 46.9 °F 44.1 °F 90% 30.04 in 10.0 mi WSW 3.5 mph - N/A   Clear
4:53 AM 46.9 °F 45.0 °F 93% 30.04 in 10.0 mi SW 3.5 mph - N/A   Clear
5:53 AM 48.0 °F 44.1 °F 86% 30.05 in 10.0 mi SW 4.6 mph - N/A   Clear
6:53 AM 51.1 °F 43.0 °F 74% 30.08 in 10.0 mi WSW 5.8 mph - N/A   Clear
7:53 AM 51.1 °F 42.1 °F 71% 30.09 in 10.0 mi WSW 5.8 mph - N/A   Clear
8:53 AM 54.0 °F 42.1 °F 64% 30.10 in 10.0 mi WSW 5.8 mph - N/A   Clear
9:53 AM 57.0 °F 44.1 °F 62% 30.11 in 10.0 mi West 5.8 mph - N/A   Clear
10:53 AM 60.1 °F 45.0 °F 57% 30.11 in 10.0 mi SSW 4.6 mph - N/A   Clear
11:53 AM 61.0 °F 45.0 °F 56% 30.09 in 10.0 mi SSW 5.8 mph - N/A   Clear
12:53 PM 63.0 °F 46.0 °F 54% 30.06 in 10.0 mi WSW 5.8 mph - N/A   Clear
1:53 PM 64.9 °F 46.0 °F 50% 30.03 in 10.0 mi SSE 9.2 mph - N/A   Clear
2:53 PM 64.0 °F 46.0 °F 52% 30.03 in 10.0 mi SSE 8.1 mph - N/A   Clear
3:53 PM 64.0 °F 44.1 °F 48% 30.02 in 10.0 mi SSE 9.2 mph - N/A   Mostly Cloudy
4:53 PM 60.1 °F 48.0 °F 64% 30.02 in 10.0 mi SSE 5.8 mph - N/A   Scattered Clouds
5:53 PM 59.0 °F 48.9 °F 69% 30.02 in 10.0 mi South 8.1 mph - N/A   Mostly Cloudy
6:53 PM 59.0 °F 48.0 °F 67% 30.03 in 10.0 mi South 5.8 mph - N/A   Mostly Cloudy
7:53 PM 60.1 °F 44.1 °F 55% 30.04 in 10.0 mi South 5.8 mph - N/A   Overcast
8:53 PM 61.0 °F 39.9 °F 46% 30.05 in 10.0 mi South 4.6 mph - N/A   Overcast
9:53 PM 57.0 °F 46.9 °F 69% 30.06 in 10.0 mi SW 4.6 mph - 0.00 in   Overcast
10:53 PM 59.0 °F 48.9 °F 69% 30.06 in 10.0 mi SSW 4.6 mph - 0.00 in   Overcast
11:53 PM 60.1 °F 48.9 °F 67% 30.06 in 10.0 mi SW 5.8 mph - N/A   Overcast